www.pogodaiklimat.ru

Погода и климат >> Архив погоды >> Россия >> Дагестан >> Дербент


ПОГОДА в Дербенте

АРХИВ ПОГОДЫ в Дербенте

Время (UTC), дата Ветер
(напр.,м/с)
 
Видим.   Явления Облачность Т
(С)
Тd
(С)
f
(%)
Тe
(С)
Тes
(С)
Комфортность P
(гПа)
Po
(гПа)
Тmin
(С)
Tmax
(С)
R
(мм)
R24
(мм)
S
(см)
15 23.04 Ю 1
{10}
20 км 9/9 600 м
[Sc]
+13.1 +8.6 74 +13 +13 по сезону 999.2 1001.3 +15.9
18 23.04 В 1 10 км 6/3 600 м
[Sc Ac trans]
+11.3 +8.5 83 +11 +11 по сезону 996.2 998.3
21 23.04 СЗ 1 10 км ясно +11.5 +8.1 80 +11 +11 по сезону 995.2 997.3
00 24.04 СЗ 5-13
{13}
10 км 10/10 600 м
[Sc]
+15.4 +7.7 60 +14 +14 тепло 1001.7 1003.9
03 24.04 СЗ 3
{13}
20 км ясно +14.8 +5.3 53 +14 +15 тепло 1009.1 1011.3 +10.7
06 24.04 С 5 20 км 9/9 600 м
[Sc]
+15.0 +5.6 53 +14 +14 по сезону 1012.8 1015.0
09 24.04 С 2 20 км 10/10 300 м
[Cb cap]
+13.3 +4.8 56 +13 +13 по сезону 1014.5 1016.7
12 24.04 В 2 20 км 10/10 300 м
[Cb cap]
+12.1 +6.2 67 +11 +11 прохладно 1014.7 1016.9
15 24.04 ЮВ 1 20 км 10/10 300 м
[Cb cap]
+15.1 +4.6 49 +16 +16 тепло 1016.2 1018.4 +18.1
18 24.04 З 1 10 км 10/10 600 м
[Sc]
+13.7 +4.3 53 +14 +14 тепло 1017.1 1019.2
21 24.04 С 1 10 км ясно +10.1 +6.5 78 +10 +10 по сезону 1017.2 1019.4
00 25.04 СЗ 2 10 км 10/10 600 м
[Sc]
+13.1 +4.1 54 +13 +13 тепло 1019.5 1021.7
03 25.04 СЗ 5 20 км 10/10 300 м
[Cb cap]
+9.9 +4.7 70 +7 +7 прохладно 1024.2 1026.4 +9.1
06 25.04 СЗ 4
{13}
4000 м слабый ливневой дождь 10/10 300 м
[Cb cap]
+6.6 +4.9 89 +3 +3 очень
холодно
1027.2 1029.5 +6.6
09 25.04 СЗ 4-10
{12}
4000 м слабый ливневой дождь 10/10 300 м
[Cb cap]
+7.5 +5.0 84 +4 +4 очень
холодно
1028.7 1031.0
12 25.04 С 3
{11}
20 км {ливн. осадки} 9/9 300 м
[Cb cap]
+9.3 +4.2 70 +7 +8 холодно 1029.3 1031.5
15 25.04 Ю 1 20 км 10/10 600 м
[Sc]
+9.8 +4.1 68 +10 +10 прохладно 1030.1 1032.3 +9.9 2
18 25.04 штиль 0 10 км 9/9 600 м
[Sc]
+9.6 +2.5 61 +9 +9 по сезону 1031.6 1033.8
21 25.04 З 1 10 км 9/8 600 м
[Sc Ac trans]
+11.4 -1.7 40 +12 +12 по сезону 1031.9 1034.1
00 26.04 З 1 10 км ясно +8.5 -0.5 53 +8 +8 по сезону 1032.3 1034.6
03 26.04 СЗ 2 20 км ясно +9.0 -0.2 52 +8 +9 прохладно 1034.1 1036.4 +7.1
06 26.04 С 3 20 км ясно +14.7 +3.4 47 +14 +23 по сезону 1035.2 1037.4
09 26.04 В 2 20 км ясно +12.7 +5.2 60 +12 +30 опасность
простуды
1035.2 1037.4
12 26.04 ЮВ 3 20 км 3/0
[Ac trans]
+12.1 +6.7 70 +11 +17 прохладно 1034.0 1036.2
15 26.04 ЮВ 3 20 км ясно +10.4 +6.8 78 +8 +9 прохладно 1033.5 1035.7 +15.0
18 26.04 Ю 2 10 км ясно +8.8 +6.2 84 +7 +7 прохладно 1033.6 1035.9
21 26.04 Ю 2 10 км ясно +7.1 +4.4 83 +5 +5 холодно 1032.6 1034.9
00 27.04 Ю 3 10 км 8/4 600 м
[Sc Ac trans]
+7.3 +5.3 87 +4 +4 холодно 1031.6 1033.9
03 27.04 Ю 3 20 км 9/4 600 м
[Sc Ac trans]
+8.3 +5.4 82 +6 +6 холодно 1031.5 1033.7 +5.5
06 27.04 ЮВ 3 20 км 4/0
[Ac trans]
+12.1 +6.4 68 +11 +18 по сезону 1031.7 1033.9
09 27.04 В 5-11
{11}
20 км ясно +13.8 +6.2 60 +12 +21 по сезону 1030.1 1032.3
12 27.04 ЮВ 8-12
{14}
20 км ясно +13.5 +3.9 52 +11 +13 прохладно 1028.4 1030.6
15 27.04 ЮВ 8-12
{14}
20 км ясно +12.2 +5.4 63 +9 +9 прохладно 1027.1 1029.3 +14.4
18 27.04 Ю 2
{12}
10 км ясно +12.1 +5.5 64 +11 +11 по сезону 1026.6 1028.8
21 27.04 Ю 4 10 км ясно +11.4 +5.5 67 +9 +9 по сезону 1026.0 1028.2
00 28.04 Ю 4 10 км ясно +12.8 +3.2 52 +11 +11 по сезону 1024.1 1026.3
03 28.04 ЮВ 2 20 км ясно +12.2 +4.9 61 +11 +13 по сезону 1023.8 1026.0 +10.8
06 28.04 ЮВ 5 20 км 4/0
[Ci fib]
+15.0 +8.1 63 +14 +19 по сезону 1023.2 1025.4
09 28.04 ЮВ 11-16
{18}
20 км 8/0
[Ac trans Ci sp]
+13.9 +6.2 60 +11 +11 прохладно 1022.0 1024.1
12 28.04 В 1
{16}
20 км 10/0
[Ac trans Ci sp]
+14.8 +6.5 58 +15 +22 по сезону 1021.5 1023.7
15 28.04 ЮВ 3 20 км 8/0
[Ci fib]
+13.2 +6.1 62 +12 +12 по сезону 1020.0 1022.2
18 28.04 ЮВ 2 10 км 8/0
[Ci fib]
+12.1 +7.2 72 +11 +11 по сезону 1020.1 1022.3
21 28.04 СЗ 1 10 км ясно +11.6 +6.5 71 +12 +12 по сезону 1020.1 1022.3
00 29.04 Ю 2 10 км 8/5 600 м
[Sc Ac trans]
+12.2 +7.5 73 +11 +11 по сезону 1019.7 1021.9
03 29.04 С 1 20 км 8/3 600 м
[Sc Ac trans]
+11.3 +7.3 76 +11 +12 по сезону 1019.9 1022.1 +10.2
06 29.04 ЮВ 4 20 км 8/3 600 м
[Sc Ac trans Ci fib]
+14.4 +7.7 64 +13 +17 по сезону 1020.5 1022.6
09 29.04 ЮВ 2 4000 м слабый ливневой дождь 10/10 300 м
[Cb cap]
+13.1 +8.0 71 +12 +12 по сезону 1020.8 1023.0
12 29.04 Ю 4 20 км {ливн. осадки} 8/3 600 м
[Sc Ac trans]
+14.6 +8.2 65 +13 +16 по сезону 1019.8 1022.0
15 29.04 ЮВ 3 20 км 8/3 600 м
[Sc Ac trans]
+12.7 +7.3 70 +11 +11 по сезону 1018.6 1020.8 +15.6
18 29.04 Ю 2 10 км 4/0
[Ac trans]
+11.0 +8.3 83 +10 +10 по сезону 1019.3 1021.5
21 29.04 Ю 1 10 км 4/0
[Ac trans]
+10.3 +8.1 86 +10 +10 по сезону 1018.3 1020.5
00 30.04 штиль 0 10 км 6/0
[Ac trans]
+9.7 +8.2 90 +9 +9 по сезону 1017.1 1019.3
03 30.04 штиль 0 20 км 4/0
[Ac trans]
+10.4 +8.9 90 +10 +11 по сезону 1017.5 1019.7 +9.3
06 30.04 В 1 20 км 9/6 300 м
[Cb cap Ac trans]
+12.5 +8.8 78 +13 +16 по сезону 1017.8 1020.0
09 30.04 ЮВ 2 20 км ясно +15.1 +8.6 65 +15 +33 опасность
простуды
1016.8 1019.0

 

Местоположение метеостанции Дербент (Дагестан, Россия): широта 42.07 долгота 48.30 высота над уровнем моря -17 м.

В архиве по умолчанию представлена погода в Дербенте за последнюю неделю. Архивные данные за месяц целиком и за предыдущие месяцы, начиная с января 2011 года, Вы можете получить, выбрав интересующий диапазон дат из раскрывающегося списка и нажав кнопку "Ввод!".

Внимание! Время в таблицах - всемирное. Для получения местного времени необходимо прибавить поправку, которая в Дербенте равна 3 ч.

Смотрите также архив погоды в соседних городах и на ближайших метеорологических станциях:

Погода в Касумкенте (Дагестан, Россия) (46 км)
Погода в Изберге (Дагестан, Россия) (60 км)
Погода в Сергокале (Дагестан, Россия) (67 км)
Погода в Губе (Азербайджан) (80 км)
Погода в Ахты (Дагестан, Россия) (81 км)
Погода в Кумухе (Дагестан, Россия) (98 км)
Погода в Куппе (Дагестан, Россия) (107 км)
Погода в Гунибе (Дагестан, Россия) (116 км)
Погода в Махачкале (Дагестан, Россия) (125 км)
Погода в Габале (Азербайджан) (126 км)

Пояснения к столбцам:

Ветер - указаны скорость ветра в м/с - средняя за 10 мин, порывы в срок и между сроками (в фигурных скобках) и направление, откуда дует ветер: С - северный, СВ - северо-восточный, В - восточный, ЮВ - юго-восточный, Ю - южный, ЮЗ - юго-западный, З - западный, СЗ - северо-западный.
Видимость - горизонтальная дальность видимости в метрах или километрах. При видимости от 1 до 10 км при отсутствии осадков обычно наблюдается дымка, при ухудшении видимости до 1 км и менее - туман. В сухую погоду видимость может ухудшаться дымом, пылью или мглою.
Явления - указаны атмосферные явления, наблюдавшиеся в срок или в последний час перед сроком; фигурными скобками обозначены явления, наблюдавшиеся между сроками (за 1-3 часа до срока); квадратными скобками обозначены град или гололедные отложения с указанием их диаметра в мм.
Облачность - указаны через наклонную черту общая и нижняя облачность в баллах и высота нижней границы облаков в метрах; квадратными скобками обозначены формы облаков: Ci - перистые, Cs - перисто-слоистые, Cc - перисто-кучевые, Ac - высококучевые, As - высокослоистые, Sc - слоисто-кучевые, Ns - слоисто-дождевые, Cu - кучевые, Cb - кучево-дождевые. Подробнее классификацию облаков см. в Атласе облаков (PDF).
T - Температура воздуха - температура, измеренная на высоте 2 м над землей.
Td - Температура точки росы - температура, при понижении до которой содержащийся в воздухе водяной пар достигнет насыщения.
f - Относительная влажность воздуха - влажноcть воздуха, измеренная на высоте 2 м над землей.
Te - Эффективная температура - температура, которую ощущает одетый по сезону человек в тени. Характеристика душности погоды. При расчете учитывается влияние влажности воздуха и скорости ветра на теплоощущения человека.
Tes - Эффективная температура на солнце - температура, которую ощущает человек, с поправкой на солнечный нагрев. Характеристика знойности погоды. Зависит от высоты солнца над горизонтом, облачности и скорости ветра. Ночью, в пасмурную погоду, а также при ветре 12 м/с и более поправка равна нулю.
P - Атмосферное давление - приведенное к уровню моря атмосферное давление.
Po - Атмосферное давление - измеренное на уровне метеостанции атмосферное давление.
Tmin - Минимальная температура - минимум температуры воздуха на высоте 2 м над землей.
Tmax - Максимальная температура - максимум температуры воздуха на высоте 2 м над землей.
R - Количество осадков - Количество выпавших осадков за период времени, мм. При наведении курсора мыши на число - период времени, за который выпало указанное количество осадков.
R24 - Количество осадков - Количество выпавших осадков за 24 часа, мм.
S - Снежный покров - Высота снежного покрова, см. При наведении курсора мыши на число - состояние снежного покрова и степень покрытия местности в баллах.